Location: Calvera
(42.3882°N, 0.6137°E)
Time: 14:11:01
(UTC+00:00)

Cosmos 1689 Rocket - Pass Details

Date: 28 October 2020
Orbit: 360 x 375 km, 97.5° (Epoch: 25 November)

Event Time Altitude Azimuth Distance (km) Brightness Sun altitude
Rises 05:07:01 0° 164° (SSE) 2,227 6.2 -15.2°
Reaches altitude 10° 05:08:58 10° 163° (SSE) 1,378 5.1 -14.8°
Maximum altitude 05:11:53 78° 77° (ENE) 387 2.1 -14.3°
Drops below altitude 10° 05:14:49 10° 350° (N) 1,381 4.7 -13.8°
Sets 05:16:46 0° 349° (N) 2,232 5.8 -13.4°
